1289865633132,0.622710
1289865693132,0.624726
1289865753132,0.621248
1289865813132,0.624350
1289865873132,0.623052
1289865933132,0.614918
1289865993132,0.616237
1289866053132,0.617964
1289866113132,0.616122
1289866173132,0.619582
1289866233132,0.619140
1289866293132,0.623301
1289866353132,0.621879
1289866413132,0.619397
1289866473132,0.623479
1289866533132,0.622023
1289866593132,0.628723
1289866653132,0.628676
1289866713132,0.625855
1289866773132,0.628000
1289866833132,0.624901
1289866893132,0.617218
1289866953132,0.625320
1289867013132,0.618708
1289867073132,0.620915
1289867133132,0.620186
1289867193132,0.617787
1289867253132,0.618372
1289867313132,0.621936
1289867373132,0.621333
1289867433132,0.623323
1289867493132,0.626460
1289867553132,0.619087
1289867613132,0.620305
1289867673132,0.625700
1289867733132,0.628035
1289867793132,0.630192
1289867853132,0.634249
1289867913132,0.635586
1289867973132,0.639830
1289868033132,0.639182
1289868093132,0.636791
1289868153132,0.638669
1289868213132,0.633398
1289868273132,0.630052
1289868333132,0.631673
1289868393132,0.634868
1289868453132,0.631457
1289868513132,0.627227
1289868573132,0.627816
1289868633132,0.628888
1289868693132,0.622971
1289868753132,0.624668
1289868813132,0.620795
1289868873132,0.619444
1289868933132,0.622452
1289868993132,0.620470
1289869053132,0.623748
1289869113132,0.621784
1289869173132,0.620743
1289869233142,0.624643
1289869293142,0.627886
1289869353142,0.620045
1289869413142,0.617609
1289869473142,0.625170
1289869533142,0.619060
1289869593142,0.623062
1289869653142,0.620562
1289869713142,0.620878
1289869773142,0.619746
1289869833142,0.622412
1289869893142,0.619682
1289869953142,0.628243
1289870013142,0.620271
1289870073142,0.621393
1289870133142,0.619329
1289870193142,0.624182
1289870253142,0.621974
1289870313142,0.616784
1289870373142,0.621767
1289870433142,0.620964
1289870493142,0.624694
1289870553142,0.625489
1289870613142,0.620259
1289870673142,0.620100
1289870733142,0.620153
1289870793142,0.629792
1289870853142,0.622259
1289870913142,0.621558
1289870973142,0.622311
1289871033142,0.621443
1289871093142,0.618045
1289871153142,0.615777
1289871213142,0.628129
1289871273142,0.632059
1289871333142,0.621437
1289871393142,0.627963
1289871453142,0.623413
1289871513142,0.623653
1289871573142,0.619130
1289871633142,0.614823
1289871693142,0.622266
1289871753142,0.623960
1289871813142,0.615206
1289871873142,0.625604
1289871933142,0.614477
1289871993142,0.624291
1289872053142,0.621256
1289872113142,0.624029
1289872173142,0.624704
1289872233142,0.618229
1289872293142,0.622581
1289872353142,0.623570
1289872413142,0.622402
1289872473142,0.622436
1289872533142,0.629295
1289872593142,0.617969
1289872653142,0.620894
1289872713142,0.619567
1289872773142,0.620568
1289872833152,0.616185
1289872893152,0.620695
1289872953152,0.618605
1289873013152,0.621212
1289873073152,0.619813
1289873133152,0.616669
1289873193152,0.621654
1289873253153,0.619186
1289873313153,0.614352
1289873373153,0.625555
1289873433153,0.626263
1289873493153,0.616248
1289873553152,0.620067
1289873613152,0.624807
1289873673152,0.622212
1289873733152,0.623415
1289873793152,0.621007
1289873853152,0.626296
1289873913152,0.625414
1289873973152,0.629756
1289874033152,0.622386
1289874093152,0.618515
1289874153152,0.618594
1289874213152,0.615212
1289874273152,0.621497
1289874333152,0.623013
1289874393152,0.624811
1289874453152,0.619738
1289874513152,0.611546
1289874573152,0.618628
1289874633153,0.621845
1289874693153,0.616755
1289874753153,0.622761
1289874813153,0.614183
1289874873153,0.619185
1289874933152,0.618105
1289874993152,0.614430
1289875053152,0.615844
1289875113152,0.616468
1289875173152,0.621505
1289875233152,0.611064
1289875293152,0.617480
1289875353152,0.616392
1289875413152,0.615760
1289875473152,0.614407
1289875533152,0.624644
1289875593152,0.615121
1289875653152,0.617823
1289875713152,0.615166
1289875773152,0.614719
1289875833152,0.621383
1289875893152,0.616817
1289875953153,0.619754
1289876013153,0.613192
1289876073153,0.618108
1289876133153,0.616211
1289876193153,0.622120
1289876253152,0.613703
1289876313152,0.618137
1289876373152,0.616106
1289876433163,0.623208
1289876493163,0.630532
1289876553163,0.626401
1289876613163,0.630777
1289876673163,0.620628
1289876733163,0.625897
1289876793163,0.619909
1289876853163,0.621355
1289876913163,0.626179
1289876973163,0.621761
1289877033163,0.626405
1289877093163,0.608055
1289877633163,0.622302
1289877693163,0.625711
1289877753163,0.626803
1289877813163,0.625743
1289877873163,0.627103
1289877933163,0.629043
1289877993163,0.622122
1289878053163,0.622170
1289878113163,0.629113
1289878173163,0.626954
1289878233163,0.628967
1289878293163,0.631021
1289878353163,0.622220
1289878413163,0.625364
1289878473163,0.625135
1289878533163,0.622804
1289878593162,0.616791
1289878653162,0.621672
1289878713162,0.620757
1289878773162,0.620495
1289878833162,0.614662
1289878893162,0.616311
1289878953163,0.621197
1289879013163,0.612638
1289879073163,0.615663
1289879133163,0.614017
1289879193163,0.619514
1289879253163,0.614102
1289879313163,0.613457
1289879373163,0.618624
1289879433163,0.615076
1289879493163,0.619120
1289879553163,0.614323
1289879613163,0.617135
1289879673163,0.617761
1289879733163,0.614055
1289879793163,0.615247
1289879853163,0.614110
1289879913163,0.608124
1289879973162,0.607015
1289880033173,0.611551
1289880093173,0.608560
1289880153173,0.617245
1289880213173,0.614803
1289880273173,0.613628
1289880333173,0.610349
1289880393173,0.608545
1289880453173,0.609804
1289880513173,0.608661
1289880573173,0.614021
1289880633173,0.616379
1289880693173,0.611053
1289880753173,0.610946
1289880813173,0.612245
1289880873173,0.611266
1289880933172,0.612536
1289880993173,0.610090
1289881053173,0.612523
1289881113173,0.613743
1289881173173,0.610584
1289881233173,0.603956
1289881293173,0.613030
1289881353173,0.604398
1289881413173,0.606284
1289881473173,0.611739
1289881533173,0.613970
1289881593173,0.602889
1289881653173,0.613679
1289881713173,0.612748
1289881773173,0.606342
1289881833173,0.613605
1289881893173,0.613667
1289881953173,0.612393
1289882013173,0.615122
1289882073173,0.603954
1289882133173,0.611842
1289882193173,0.615318
1289882253172,0.612688
1289882313172,0.606112
1289882373173,0.606918
1289882433173,0.614311
1289882493173,0.606743
1289882553173,0.611749
1289882613173,0.608375
1289882673173,0.607729
1289882733173,0.613964
1289882793173,0.609127
1289882853173,0.610518
1289882913173,0.611539
1289882973173,0.608115
1289883033173,0.609315
1289883093173,0.612494
1289883153173,0.608477
1289883213173,0.610975
1289883273173,0.608301
1289883333173,0.609327
1289883393173,0.610083
1289883453173,0.609902
1289883513173,0.610725
1289883573173,0.609052
1289883633183,0.608857
1289883693183,0.608084
1289883753183,0.607057
1289883813183,0.606988
1289883873183,0.608878
1289883933183,0.601635
1289883993183,0.604650
1289884053183,0.608518
1289884113183,0.607587
1289884173183,0.602933
1289884233183,0.604245
1289884293183,0.609647
1289884353183,0.605470
1289884413183,0.609941
1289884473183,0.605714
1289884533183,0.616288
1289884593183,0.609556
1289884653183,0.607045
1289884713183,0.611153
1289884773183,0.605470
1289884833183,0.610424
1289884893183,0.607369
1289884953183,0.605511
1289885013183,0.610897
1289885073183,0.602702
1289885133183,0.607345
1289885193183,0.603992
1289885253183,0.603315
1289885313183,0.609280
1289885373183,0.605293
1289885433183,0.606713
1289885493183,0.608085
1289885553183,0.604403
1289885613183,0.605191
1289885673183,0.607566
1289885733183,0.608829
1289885793183,0.604842
1289885853183,0.602259
1289885913183,0.606888
1289885973183,0.604203
1289886033183,0.610167
1289886093183,0.607126
1289886153183,0.606655
1289886213183,0.610613
1289886273183,0.608104
1289886333183,0.605619
1289886393183,0.603345
1289886453183,0.603327
1289886513183,0.601683
1289886573183,0.605419
1289886633183,0.600313
1289886693183,0.607152
1289886753183,0.605619
1289886813183,0.606797
1289886873183,0.608632
1289886933183,0.605080
1289886993183,0.609184
1289887053183,0.601688
1289887113183,0.608873
1289887173183,0.600838
1289887233193,0.620786
1289887293193,0.608703
1289887353193,0.608876
1289887413193,0.603880
1289887473193,0.607420
1289887533193,0.605457
1289887593193,0.610238
1289887653193,0.607332
1289887713193,0.602370
1289887773193,0.602834
1289887833193,0.606124
1289887893193,0.607796
1289887953193,0.603360
1289888013193,0.607579
1289888073193,0.612877
1289888133193,0.604126
1289888193193,0.613462
1289888253193,0.604354
1289888313193,0.606400
1289888373193,0.605756
1289888433193,0.615244
1289888493193,0.599854
1289888553193,0.605231
1289888613193,0.607760
1289888673193,0.603310
1289888733193,0.605771
1289888793193,0.604846
1289888853193,0.607548
1289888913193,0.603045
1289888973193,0.610393
1289889033193,0.607088
1289889093193,0.602372
1289889153193,0.606196
1289889213193,0.600561
1289889273193,0.603833
1289889333193,0.609877
1289889393193,0.608148
1289889453193,0.610372
1289889513193,0.603552
1289889573193,0.605961
1289889633193,0.610068
1289889693193,0.607139
1289889753193,0.608285
1289889813193,0.615364
1289889873193,0.616701
1289889933193,0.616828
1289889993193,0.611440
1289890053193,0.611286
1289890113193,0.615023
1289890173193,0.605523
1289890233193,0.606574
1289890293193,0.612168
1289890353193,0.605692
1289890413193,0.608349
1289890473193,0.612881
1289890533193,0.604817
1289890593193,0.605294
1289890653193,0.610194
1289890713193,0.610273
1289890773193,0.606144
1289890833203,0.604729
1289890893203,0.603202
1289890953203,0.603781
1289891013203,0.601867
1289891073203,0.605965
1289891133203,0.610419
1289891193203,0.605495
1289891253203,0.609776
1289891313203,0.610166
1289891373203,0.608687
1289891433203,0.609683
1289891493203,0.606284
1289891553203,0.611898
1289891613203,0.611898
1289891673203,0.617746
1289891733203,0.617381
1289891793203,0.622775
1289891853203,0.618591
1289891913203,0.615188
1289891973203,0.617799
1289892033203,0.609480
1289892093203,0.605978
1289892153203,0.612395
1289892213203,0.609150
1289892273203,0.606833
1289892333203,0.601946
1289892393203,0.605705
1289892453203,0.605172
1289892513203,0.605446
1289892573203,0.608593
1289892633203,0.605892
1289892693203,0.612468
1289892753203,0.605233
1289892813203,0.610407
1289892873203,0.611976
1289892933203,0.607094
1289892993203,0.604169
1289893053203,0.602711
1289893113203,0.606089
1289893173203,0.609812
1289893233203,0.604342
1289893293203,0.610573
1289893353203,0.603032
1289893413203,0.603568
1289893473203,0.601964
1289893533203,0.604614
1289893593203,0.606488
1289893653203,0.601354
1289893713203,0.604150
1289893773203,0.608610
1289893833203,0.608317
1289893893203,0.604228
1289893953203,0.608418
1289894013203,0.608657
1289894073203,0.606122
1289894133203,0.602747
1289894193203,0.602070
1289894253203,0.603837
1289894313203,0.605337
1289894373203,0.606657
1289894433214,0.604036
1289894493214,0.601060
1289894553214,0.608484
1289894613214,0.606131
1289894673214,0.601263
1289894733214,0.606431
1289894793214,0.607924
1289894853214,0.595954
1289894913214,0.604972
1289894973214,0.608613
1289895033214,0.606238
1289895093214,0.607869
1289895153214,0.604255
1289895213214,0.603554
1289895273214,0.605660
1289895333214,0.600468
1289895393214,0.600032
1289895453214,0.601482
1289895513214,0.608481
1289895573214,0.603129
1289895633214,0.601746
1289895693214,0.603618
1289895753214,0.605969
1289895813214,0.609684
1289895873214,0.608643
1289895933214,0.606136
1289895993214,0.598061
1289896053214,0.600677
1289896113214,0.611410
1289896173214,0.610372
1289896233214,0.606969
1289896293214,0.602739
1289896353214,0.602240
1289896413214,0.607650
1289896473214,0.607087
1289896533214,0.601147
1289896593214,0.603648
1289896653214,0.607833
1289896713214,0.598105
1289896773214,0.601650
1289896833214,0.604724
1289896893214,0.604966
1289896953214,0.612027
1289897013214,0.602542
1289897073214,0.605018
1289897133214,0.603225
1289897193214,0.605097
1289897253214,0.600259
1289897313214,0.608799
1289897373214,0.599208
1289897433214,0.603051
1289897493214,0.604333
1289897553214,0.607534
1289897613214,0.604545
1289897673214,0.604032
1289897733214,0.598615
1289897793214,0.607377
1289897853214,0.602498
1289897913214,0.604837
1289897973214,0.600143
1289898033225,0.609274
1289898093225,0.603703
1289898153225,0.607778
1289898213225,0.612530
1289898273225,0.607984
1289898333225,0.610218
1289898393225,0.605547
1289898453225,0.607190
1289898513225,0.612254
1289898573225,0.612522
1289898633225,0.612174
1289898693225,0.608105
1289898753225,0.601356
1289898813225,0.609616
1289898873225,0.603940
1289898933225,0.603262
1289898993225,0.607909
1289899053225,0.607749
1289899113225,0.598708
1289899173225,0.603243
1289899233225,0.605055
1289899293225,0.608415
1289899353225,0.609145
1289899413225,0.608150
1289899473225,0.604320
1289899533225,0.607053
1289899593225,0.598691
1289899653225,0.605993
1289899713225,0.606429
1289899773225,0.607628
1289899833225,0.601217
1289899893225,0.605482
1289899953225,0.605462
1289900013225,0.608075
1289900073225,0.609554
1289900133225,0.604486
1289900193225,0.608586
1289900253225,0.597800
1289900313225,0.607904
1289900373225,0.600110
1289900433225,0.605783
1289900493225,0.604320
1289900553225,0.603917
1289900613225,0.611395
1289900673225,0.603428
1289900733225,0.605584
1289900793225,0.607510
1289900853225,0.601900
1289900913225,0.603181
1289900973225,0.605266
1289901033225,0.612158
1289901093225,0.607026
1289901153225,0.608963
1289901213225,0.602606
1289901273225,0.608788
1289901333225,0.607481
1289901393225,0.609709
1289901453225,0.609554
1289901513225,0.607427
1289901573225,0.611393
1289901633236,0.609914
1289901693236,0.598527
1289901753236,0.606871
1289901813236,0.607114
1289901873236,0.600283
1289901933236,0.609315
1289901993236,0.607070
1289902053236,0.605278
1289902113236,0.605343
1289902173236,0.602984
1289902233236,0.599305
1289902293236,0.604258
1289902353236,0.604998
1289902413236,0.599035
1289902473236,0.604021
1289902533236,0.602728
1289902593236,0.605164
1289902653236,0.604625
1289902713236,0.612718
1289902773236,0.608695
1289902833236,0.601495
1289902893236,0.608198
1289902953236,0.603487
1289903013236,0.599217
1289903073236,0.601807
1289903133236,0.600990
1289903193236,0.604730
1289903253236,0.598678
1289903313236,0.605918
1289903373236,0.604896
1289903433236,0.608677
1289903493236,0.609223
1289903553236,0.606380
1289903613236,0.605927
1289903673236,0.605163
1289903733236,0.611335
1289903793236,0.610946
1289903853236,0.601490
1289903913236,0.605843
1289903973236,0.605546
1289904033236,0.608358
1289904093236,0.602474
1289904153236,0.609293
1289904213236,0.605472
1289904273236,0.608122
1289904333236,0.607721
1289904393236,0.605218
1289904453236,0.601091
1289904513236,0.608095
1289904573236,0.607300
1289904633236,0.607610
1289904693236,0.604069
1289904753236,0.611052
1289904813236,0.610399
1289904873236,0.604809
1289904933236,0.609090
1289904993236,0.610379
1289905053236,0.605713
1289905113236,0.611464
1289905173236,0.604786
1289905233248,0.609796
1289905293248,0.604932
1289905353248,0.605017
1289905413248,0.610470
1289905473248,0.605905
1289905533248,0.606614
1289905593248,0.600737
1289905653248,0.608215
1289905713248,0.601260
1289905773248,0.602052
1289905833248,0.605423
1289905893248,0.603905
1289905953248,0.602508
1289906013248,0.603728
1289906073248,0.606520
1289906133248,0.599914
1289906193248,0.605417
1289906253248,0.602563
1289906313248,0.604917
1289906373248,0.603033
1289906433248,0.606176
1289906493248,0.604488
1289906553248,0.606266
1289906613248,0.605604
1289906673248,0.610035
1289906733248,0.605535
1289906793248,0.605086
1289906853248,0.603846
1289906913248,0.607322
1289906973248,0.605747
1289907033248,0.603746
1289907093248,0.608610
1289907153248,0.604666
1289907213248,0.606419
1289907273248,0.602663
1289907333248,0.600580
1289907393248,0.605654
1289907453248,0.601377
1289907513248,0.603291
1289907573248,0.602831
1289907633248,0.603647
1289907693248,0.606706
1289907753248,0.603626
1289907813248,0.602632
1289907873248,0.610698
1289907933248,0.601524
1289907993248,0.601976
1289908053248,0.599307
1289908113248,0.604042
1289908173248,0.602509
1289908233248,0.600672
1289908293248,0.600125
1289908353248,0.605033
1289908413248,0.611407
1289908473248,0.603033
1289908533248,0.604702
1289908593248,0.603926
1289908653248,0.600668
1289908713248,0.606954
1289908773248,0.606030
1289908833259,0.603205
1289908893259,0.604844
1289908953259,0.605308
1289909013259,0.607887
1289909073259,0.597475
1289909133259,0.606056
1289909193259,0.605980
1289909253259,0.600524
1289909313259,0.603807
1289909373259,0.604267
1289909433259,0.601221
1289909493259,0.604826
1289909553259,0.600382
1289909613259,0.604178
1289909673259,0.604842
1289909733259,0.607657
1289909793259,0.605975
1289909853259,0.603613
1289909913259,0.600528
1289909973259,0.607714
1289910033259,0.610958
1289910093259,0.598579
1289910153259,0.608044
1289910213259,0.598493
1289910273259,0.607086
1289910333259,0.599676
1289910393259,0.611346
1289910453259,0.597798
1289910513259,0.603149
1289910573259,0.607003
1289910633259,0.604021
1289910693259,0.603228
1289910753259,0.600321
1289910813259,0.600744
1289910873259,0.602017
1289910933259,0.604088
1289910993259,0.603680
1289911053259,0.607351
1289911113259,0.602944
1289911173259,0.608644
1289911233259,0.610039
1289911293259,0.611602
1289911353259,0.611328
1289911413259,0.600656
1289911473259,0.606384
1289911533259,0.611039
1289911593259,0.608620
1289911653259,0.602858
1289911713259,0.607892
1289911773259,0.605746
1289911833259,0.601170
1289911893259,0.603094
1289911953259,0.606893
1289912013259,0.607023
1289912073259,0.608510
1289912133259,0.605497
1289912193259,0.609547
1289912253259,0.607845
1289912313259,0.609351
1289912373259,0.603436
1289912433271,0.611544
1289912493271,0.602877
1289912553271,0.607724
1289912613271,0.606266
1289912673271,0.609622
1289912733271,0.607930
1289912793271,0.611610
1289912853271,0.604468
1289912913271,0.608154
1289912973271,0.604236
1289913033271,0.612305
1289913093271,0.611636
1289913153271,0.605638
1289913213271,0.610696
1289913273271,0.593518
1289913333271,0.603451
1289913393271,0.610989
1289913453271,0.602794
1289913513271,0.607203
1289913573271,0.605480
1289913633271,0.606261
1289913693271,0.610208
1289913753271,0.604549
1289913813271,0.604554
1289913873271,0.599582
1289913933271,0.610795
1289913993271,0.610109
1289914053271,0.605623
1289914113271,0.608864
1289914173271,0.611877
1289914233271,0.601880
1289914293271,0.601179
1289914353271,0.606325
1289914413271,0.607449
1289914473271,0.604250
1289914533271,0.602577
1289914593271,0.603305
1289914653271,0.606912
1289914713271,0.609527
1289914773271,0.608349
1289914833271,0.600445
1289914893271,0.607320
1289914953271,0.603615
1289915013271,0.610859
1289915073271,0.605430
1289915133271,0.613563
1289915193271,0.604566
1289915253271,0.602554
1289915313271,0.606883
1289915373271,0.609205
1289915433271,0.610715
1289915493271,0.606699
1289915553271,0.601579
1289915613271,0.604987
1289915673271,0.609100
1289915733271,0.605528
1289915793271,0.605876
1289915853271,0.610974
1289915913271,0.608999
1289915973271,0.604436
1289916033283,0.607399
1289916093283,0.599936
1289916153283,0.605682
1289916213283,0.608786
1289916273283,0.605884
1289916333283,0.609667
1289916393283,0.608968
1289916453283,0.607621
1289916513283,0.609465
1289916573283,0.600339
1289916633283,0.610009
1289916693283,0.611370
1289916753283,0.600894
1289916813283,0.600553
1289916873283,0.605053
1289916933283,0.600543
1289916993283,0.605205
1289917053283,0.599601
1289917113283,0.600600
1289917173283,0.598444
1289917233283,0.602794
1289917293283,0.602359
1289917353283,0.601981
1289917413283,0.598854
1289917473283,0.606549
1289917533283,0.600388
1289917593283,0.600826
1289917653283,0.596651
1289917713283,0.609177
1289917773283,0.604409
1289917833283,0.603279
1289917893283,0.607366
1289917953283,0.607725
1289918013283,0.613563
1289918073283,0.604573
1289918133283,0.602953
1289918193283,0.607601
1289918253283,0.608280
1289918313283,0.609389
1289918373283,0.605302
1289918433283,0.601759
1289918493283,0.603054
1289918553283,0.609884
1289918613283,0.603101
1289918673283,0.602134
1289918733283,0.611266
1289918793283,0.608242
1289918853283,0.608883
1289918913283,0.612085
1289918973283,0.605105
1289919033283,0.603158
1289919093283,0.599794
1289919153283,0.601271
1289919213283,0.608403
1289919273283,0.607320
1289919333283,0.605743
1289919393283,0.595981
1289919453283,0.604745
1289919513283,0.604905
1289919573283,0.606548
1289919633296,0.600725
1289919693296,0.601827
1289919753296,0.605378
1289919813296,0.606682
1289919873296,0.605413
1289919933296,0.607870
1289919993296,0.609485
1289920053296,0.603552
1289920113296,0.603489
1289920173296,0.602424
1289920233296,0.599878
1289920293296,0.603814
1289920353296,0.611461
1289920413296,0.601240
1289920473296,0.605257
1289920533296,0.605553
1289920593296,0.609581
1289920653295,0.609897
1289920713295,0.597398
1289920773296,0.601394
1289920833296,0.602525
1289920893296,0.605782
1289920953296,0.601117
1289921013296,0.604249
1289921073296,0.613251
1289921133296,0.606940
1289921193296,0.607626
1289921253296,0.607511
1289921313296,0.604400
1289921373296,0.601463
1289921433296,0.604586
1289921493296,0.599444
1289921553296,0.609192
1289921613296,0.599452
1289921673296,0.604009
1289921733296,0.609174
1289921793296,0.607524
1289921853296,0.606035
1289921913296,0.620410
1289921973295,0.608271
1289922033295,0.604146
1289922093295,0.604093
1289922153296,0.598134
1289922213296,0.607325
1289922273296,0.606792
1289922333296,0.598996
1289922393296,0.608015
1289922453296,0.609178
1289922513296,0.606849
1289922573296,0.603037
1289922633296,0.604390
1289922693296,0.605465
1289922753296,0.603080
1289922813296,0.602297
1289922873296,0.600952
1289922933296,0.597648
1289922993296,0.600659
1289923053296,0.603485
1289923113296,0.605745
1289923173296,0.599253
1289923233308,0.598116
1289923293308,0.602482
1289923353308,0.602968
1289923413308,0.607673
1289923473308,0.600438
1289923533308,0.602653
1289923593308,0.604357
1289923653308,0.604521
1289923713308,0.603560
1289923773308,0.604687
1289923833308,0.602821
1289923893308,0.601353
1289923953308,0.599874
1289924013308,0.602813
1289924073308,0.603626
1289924133308,0.601172
1289924193308,0.599726
1289924253308,0.602016
1289924313308,0.605553
1289924373308,0.610083
1289924433308,0.605515
1289924493308,0.602839
1289924553308,0.596762
1289924613308,0.602225
1289924673308,0.604123
1289924733308,0.607164
1289924793308,0.601841
1289924853308,0.602155
1289924913308,0.600806
1289924973308,0.597819
1289925033308,0.604792
1289925093308,0.602430
1289925153308,0.605418
1289925213308,0.597289
1289925273308,0.602600
1289925333308,0.601206
1289925393308,0.607317
1289925453308,0.601619
1289925513308,0.599780
1289925573308,0.603470
1289925633308,0.595702
1289925693308,0.601219
1289925753308,0.602418
1289925813308,0.611501
1289925873308,0.601841
1289925933308,0.608690
1289925993308,0.608633
1289926053308,0.607123
1289926113308,0.609427
1289926173308,0.603973
1289926233308,0.606121
1289926293308,0.598408
1289926353308,0.607168
1289926413308,0.606150
1289926473308,0.607717
1289926533308,0.606277
1289926593308,0.608721
1289926653308,0.613321
1289926713308,0.605118
1289926773308,0.608724
1289926833319,0.608458
1289926893319,0.606902
1289926953319,0.602921
1289927013319,0.611405
1289927073319,0.610314
1289927133319,0.602333
1289927193319,0.600362
1289927253319,0.606215
1289927313319,0.604283
1289927373319,0.604690
1289927433319,0.605082
1289927493319,0.602199
1289927553319,0.604984
1289927613319,0.607012
1289927673319,0.609448
1289927733319,0.599977
1289927793319,0.603017
1289927853319,0.604834
1289927913319,0.602581
1289927973319,0.602811
1289928033319,0.603085
1289928093319,0.603658
1289928153319,0.600703
1289928213319,0.598926
1289928273319,0.602723
1289928333319,0.600205
1289928393319,0.602608
1289928453319,0.603174
1289928513319,0.610068
1289928573319,0.604116
1289928633319,0.599518